Weather History for Sisseton, SD

Change the Weather History Date:

Saturday, June 1, 2013

  Actual Average Record
Temperature  
Mean Temperature 53 °F 62 °F  
Max Temperature 59 °F 74 °F 93 °F (1940)
Min Temperature 46 °F 51 °F 34 °F (1946)
Degree Days  
Heating Degree Days 12 4  
Month to date heating degree days 12 4  
Since 1 June heating degree days 12 4  
Since 1 July heating degree days 9085 8225  
Cooling Degree Days 0 2  
Month to date cooling degree days 0 2  
Year to date cooling degree days 25 25  
Since 1 June cooling degree days 0 2  
Growing Degree Days 2 (Base 50)    
Moisture  
Dew Point 49 °F    
Average Humidity 89    
Maximum Humidity 100    
Minimum Humidity 77    
Precipitation  
Precipitation 0.02 in 0.12 in 3.07 in (2007)
Month to date precipitation 0.02 0.12  
Year to date precipitation 9.36 7.10  
Sea Level Pressure  
Sea Level Pressure 29.83 in    
Wind  
Wind Speed 21 mph (North)    
Max Wind Speed 30 mph    
Max Gust Speed 37 mph    
T = Trace of Precipitation, MM = Missing Value Source: NWS Daily Summary

Daily Weather History Graph

Daily Weather History Graph

Search for Another Location

Airport:

Trip Planner

Search our weather history database for the weather conditions in past years. The results will help you decide how hot, cold, wet, or windy it might be!

Date:

Astronomy

Jun. 01, 2013 Rise Set
Actual Time 5:41 AM CDT 9:10 PM CDT
Civil Twilight 5:04 AM CDT 9:47 PM CDT
Nautical Twilight 4:16 AM CDT 10:36 PM CDT
Astronomical Twilight 3:12 AM CDT 11:40 PM CDT
Moon 1:58 AM CDT (6/1) 2:22 PM CDT (6/1)
Length of Visible Light 16h 42m
Length of Day
15h 28m
Last Quarter, 40% of the Moon is Illuminated
Jun 1
Last Quarter
Jun 8
New
Jun 16
First Quarter
Jun 23
Full
Jun 29
Last Quarter

Hourly Weather History & Observations

Time (CDT) Temp. Dew Point Humidity Pressure Visibility Wind Dir Wind Speed Gust Speed Precip Events Conditions
12:00 AM - - N/A% - - North - - N/A   Unknown
12:56 AM 59.0 °F 57.9 °F 96% 29.49 in - NNE 6.9 mph - N/A   Unknown
1:56 AM 59.0 °F 57.9 °F 96% 29.52 in - NE 11.5 mph - N/A   Unknown
2:56 AM 59.0 °F 57.0 °F 93% 29.54 in - NNE 17.3 mph - N/A   Unknown
3:56 AM 55.9 °F 55.0 °F 97% 29.57 in - North 19.6 mph 26.5 mph N/A   Unknown
4:56 AM 53.1 °F 53.1 °F 100% 29.61 in - North 23.0 mph 31.1 mph N/A   Unknown
5:56 AM 52.0 °F 51.1 °F 97% 29.66 in - North 25.3 mph 32.2 mph N/A   Unknown
6:56 AM 50.0 °F 48.9 °F 96% 29.70 in - North 20.7 mph 34.5 mph N/A   Unknown
7:56 AM 48.0 °F 46.9 °F 96% 29.73 in - North 26.5 mph 32.2 mph N/A   Unknown
8:56 AM 48.0 °F 46.9 °F 96% 29.77 in - North 26.5 mph 35.7 mph 0.01 in   Unknown
9:56 AM 48.0 °F 46.0 °F 93% 29.80 in - North 25.3 mph 34.5 mph N/A   Unknown
10:56 AM 48.9 °F 46.0 °F 90% 29.83 in - North 25.3 mph 32.2 mph N/A   Unknown
11:56 AM 46.9 °F 46.0 °F 97% 29.86 in - North 26.5 mph 35.7 mph N/A   Unknown
12:56 PM 48.0 °F 46.0 °F 93% 29.88 in - North 26.5 mph 33.4 mph N/A   Unknown
1:56 PM 48.0 °F 46.9 °F 96% 29.91 in - North 23.0 mph 27.6 mph 0.01 in   Unknown
2:56 PM 50.0 °F 48.0 °F 93% 29.92 in - North 27.6 mph 32.2 mph N/A   Unknown
3:56 PM 52.0 °F 48.0 °F 86% 29.94 in - North 27.6 mph 34.5 mph N/A   Unknown
4:56 PM 51.1 °F 48.0 °F 89% 29.96 in - North 26.5 mph 31.1 mph N/A   Unknown
5:56 PM 53.1 °F 46.9 °F 80% 29.98 in - North 23.0 mph 34.5 mph N/A   Unknown
6:56 PM 53.1 °F 46.0 °F 77% 29.99 in - NNE 21.9 mph 32.2 mph N/A   Unknown
7:56 PM 52.0 °F 46.0 °F 80% 30.01 in - North 18.4 mph 26.5 mph N/A   Unknown
8:56 PM 51.1 °F 45.0 °F 80% 30.03 in - North 13.8 mph - N/A   Unknown
9:56 PM 50.0 °F 45.0 °F 83% 30.05 in - North 12.7 mph - N/A   Unknown
10:56 PM 46.9 °F 44.1 °F 90% 30.07 in - NNW 10.4 mph - N/A   Unknown
11:56 PM 46.9 °F 44.1 °F 90% 30.08 in - NNW 9.2 mph - N/A   Unknown